PSLV R/B, 43620

Orbit data source: Space-Track

PSLV R/B, 43620 is space debris in SSO originally from a launch on Sun, 16 Sep 2018 UTC launched from the Sirharikota (SRI). Debris objects in space refer to the collection of defunct objects orbiting the Earth. Examples of debris include non-operational satellites, rocket bodies, and fragments generated from explosions, collisions, or faulty payload assembly.

Loading next visibility...
Identifier
43620, 2018-071C
Orbit
SSO
Country
Flag of ININ / IND
Related business
Manufacturer
VSSC/LPSC
Mission
Spacecraft
Bus & Motor
PS-4, Unknown motor
Mass
920 kg wet, 920 kg dry
Launch date (UTC)
2018-09-16 (7 years ago)
Launch vehicle
Unknown
Launch site
Sirharikota (SRI)
Object type
Payload
Rocket body
Debris
Shape & HBR
Cyl + Cyl + 2 Nozzle, 1.6 m
Radar Cross Section
3.727 m², Large (>1 m²)

Expand to show TLE details & history
Last TLE update: 8 hours ago

TLE from 8 hours ago
0 PSLV R/B
1 43620U 18071C   25293.61939160  .00003851  00000-0  31954-3 0  9990
2 43620  97.4396 115.4938 0025443 218.2949 141.6469 14.99108550386515
Epoch: 2025-10-20T14:51Z
TLE epoch observation values (Epoch: 2025-10-20T14:51:55.434Z)
Latitude
0.00003°
Longitude
-136.80628°
Altitude
586.593 km
Speed
7.559 km/s
True Right ascension
07h 41m 58s
True Declination
0° 00' 00"
Sunlit
Object was in daylight at epoch
Visualization orbit readout
Latitude
Unknown
Longitude
Unknown
Altitude
Unknown
Speed
Unknown
Apparent Right ascension
Unknown
Apparent Declination
Unknown
Sunlit
N/A
Visualization observer readout
Local Sidereal Time
18:18:20
Azimuth
Unknown
Elevation
Unknown
Doppler factor
Unknown
Orbital elements
Apogee altitude
584.314 km
Perigee altitude
548.975 km
Semi-major axis
6,944.781 km
Eccentricity
0.00254
Inclination
97.4396°
RAAN
115.4938°
Arg. of periapsis
218.2949°
True anomaly
141.82736°
Mean anomaly
141.6469°
Eccentric anomaly
141.73718°
Mean motion
3.75021 °/min
Orbital period
95.99 mins
BSTAR
0.00031954
Loading maneuver chart data...
Computing Atmospheric mass density...
Loading historical data...
Loading historical data...
Loading historical data...
Loading historical data...
Loading historical data...
Loading historical data...
Loading historical data...
Other satellites on launch #71 in the year 2018 (2018-09-16 UTC)

Documentation

Showing up to 5 results
|